Princeton, MN

2:37 AM CST on December 11, 2019 (GMT -0600)
Princeton Municipal

Weather History for KPNM - May, 2019

Change the Weather History Date:

Friday, May 17, 2019

  Actual Average Record
Temperature  
Mean Temperature 56 °F -  
Max Temperature 69 °F 64 °F 84 °F (1998)
Min Temperature 44 °F 41 °F 30 °F (2007)
Degree Days  
Heating Degree Days 8    
Growing Degree Days 6 (Base 50)    
Moisture  
Dew Point 35 °F    
Average Humidity 46    
Maximum Humidity 66    
Minimum Humidity 28    
Precipitation  
Precipitation 0.00 in - - ()
Sea Level Pressure  
Sea Level Pressure 29.89 in    
Wind  
Wind Speed 7 mph (NE)    
Max Wind Speed 18 mph    
Max Gust Speed 22 mph    
Visibility 10 miles    
Events Rain    
Averages and records for this station are not official NWS values.
T = Trace of Precipitation, MM = Missing Value Source: NWS Daily Summary

Daily Weather History Graph

Daily Weather History Graph

Search for Another Location

Airport or City:

Astronomy

May. 17, 2019 Rise Set
Actual Time 5:41 AM CDT 8:40 PM CDT
Civil Twilight 5:06 AM CDT 9:15 PM CDT
Nautical Twilight 4:22 AM CDT 10:00 PM CDT
Astronomical Twilight 3:28 AM CDT 10:54 PM CDT
Moon 7:23 PM CDT (5/17) 5:22 AM CDT (5/17)
Length of Visible Light 16h 09m
Length of Day
14h 59m
Waxing Gibbous, 98% of the Moon is Illuminated
May 17
Waxing Gibbous
May 18
Full
May 26
Last Quarter
Jun 3
New
Jun 10
First Quarter

Hourly Weather History & Observations

Time (CDT) Temp. Windchill Dew Point Humidity Pressure Visibility Wind Dir Wind Speed Gust Speed Precip Events Conditions
12:15 AM 50.0 °F - 39.2 °F 66% 29.86 in 10.0 mi NNW 4.6 mph - N/A   Clear
12:35 AM 50.0 °F - 39.2 °F 66% 29.86 in 10.0 mi North 5.8 mph - N/A   Clear
12:55 AM 50.0 °F - 39.2 °F 66% 29.87 in 10.0 mi North 5.8 mph - N/A   Clear
1:15 AM 50.0 °F - 37.4 °F 62% 29.88 in 10.0 mi North 5.8 mph - N/A   Clear
1:16 AM 50.0 °F - 37.4 °F 62% 29.88 in 10.0 mi North 5.8 mph - N/A   Clear
1:35 AM 48.2 °F - 37.4 °F 66% 29.88 in 10.0 mi North 5.8 mph - N/A   Clear
1:55 AM 48.2 °F - 37.4 °F 66% 29.88 in 10.0 mi North 5.8 mph - N/A   Clear
2:15 AM 48.2 °F - 35.6 °F 62% 29.88 in 10.0 mi North 6.9 mph - N/A   Clear
2:16 AM 48.2 °F - 35.6 °F 62% 29.89 in 10.0 mi North 5.8 mph - N/A   Clear
2:35 AM 48.2 °F - 35.6 °F 62% 29.89 in 10.0 mi North 4.6 mph - N/A   Clear
2:36 AM 48.2 °F - 35.6 °F 62% 29.90 in 10.0 mi North 4.6 mph - N/A   Clear
2:55 AM 46.4 °F 45.2 °F 35.6 °F 66% 29.90 in 10.0 mi North 3.5 mph - N/A   Clear
3:15 AM 46.4 °F 44.3 °F 35.6 °F 66% 29.90 in 10.0 mi North 4.6 mph - N/A   Clear
3:16 AM 46.4 °F 44.3 °F 35.6 °F 66% 29.90 in 10.0 mi North 4.6 mph - N/A   Clear
3:35 AM 46.4 °F 45.2 °F 33.8 °F 62% 29.91 in 10.0 mi North 3.5 mph - N/A   Clear
3:55 AM 46.4 °F 43.5 °F 33.8 °F 62% 29.91 in 10.0 mi North 5.8 mph - N/A   Clear
3:56 AM 46.4 °F 44.3 °F 33.8 °F 62% 29.91 in 10.0 mi North 4.6 mph - N/A   Clear
4:15 AM 44.6 °F 42.2 °F 33.8 °F 66% 29.92 in 10.0 mi North 4.6 mph - N/A   Clear
4:35 AM 44.6 °F 42.2 °F 33.8 °F 66% 29.92 in 10.0 mi NNE 4.6 mph - N/A   Clear
4:55 AM 46.4 °F 42.9 °F 33.8 °F 62% 29.90 in 10.0 mi NNE 6.9 mph - N/A   Clear
5:15 AM 44.6 °F 41.4 °F 33.8 °F 66% 29.91 in 10.0 mi NNE 5.8 mph - N/A   Clear
5:16 AM 44.6 °F 41.4 °F 33.8 °F 66% 29.91 in 10.0 mi North 5.8 mph - N/A   Clear
5:35 AM 44.6 °F 42.2 °F 33.8 °F 66% 29.92 in 10.0 mi NNE 4.6 mph - N/A   Clear
5:36 AM 46.4 °F 43.5 °F 33.8 °F 62% 29.92 in 10.0 mi NNE 5.8 mph - N/A   Clear
5:55 AM 46.4 °F 45.2 °F 33.8 °F 62% 29.94 in 10.0 mi NNE 3.5 mph - N/A   Clear
5:56 AM 46.4 °F 44.3 °F 33.8 °F 62% 29.94 in 10.0 mi NNE 4.6 mph - N/A   Clear
6:15 AM 44.6 °F 42.2 °F 33.8 °F 66% 29.94 in 10.0 mi North 4.6 mph - N/A   Clear
6:35 AM 46.4 °F 44.3 °F 35.6 °F 66% 29.93 in 10.0 mi NNE 4.6 mph - N/A   Clear
6:55 AM 46.4 °F 42.9 °F 35.6 °F 66% 29.92 in 10.0 mi NNE 6.9 mph - N/A   Clear
6:56 AM 46.4 °F 42.9 °F 35.6 °F 66% 29.93 in 10.0 mi NNE 6.9 mph - N/A   Clear
7:15 AM 48.2 °F - 35.6 °F 62% 29.93 in 10.0 mi NNE 10.4 mph - N/A   Clear
7:35 AM 50.0 °F - 35.6 °F 58% 29.92 in 10.0 mi NNE 10.4 mph - N/A   Clear
7:55 AM 51.8 °F - 37.4 °F 58% 29.92 in 10.0 mi NE 6.9 mph - N/A   Clear
7:56 AM 51.8 °F - 37.4 °F 58% 29.92 in 10.0 mi NE 5.8 mph - N/A   Clear
8:16 AM 51.8 °F - 37.4 °F 58% 29.92 in 10.0 mi NNE 9.2 mph - N/A   Clear
8:35 AM 53.6 °F - 39.2 °F 58% 29.93 in 10.0 mi NE 6.9 mph - N/A   Clear
8:36 AM 53.6 °F - 39.2 °F 58% 29.92 in 10.0 mi NE 8.1 mph - N/A   Clear
8:55 AM 53.6 °F - 39.2 °F 58% 29.92 in 10.0 mi NNE 9.2 mph - N/A   Clear
9:15 AM 55.4 °F - 39.2 °F 54% 29.92 in 10.0 mi NE 8.1 mph - N/A   Clear
9:35 AM 57.2 °F - 41.0 °F 55% 29.91 in 10.0 mi ENE 8.1 mph - N/A   Clear
9:36 AM 57.2 °F - 41.0 °F 55% 29.92 in 10.0 mi ENE 8.1 mph - N/A   Clear
9:55 AM 57.2 °F - 39.2 °F 51% 29.91 in 10.0 mi NE 10.4 mph - N/A   Clear
10:15 AM 59.0 °F - 41.0 °F 51% 29.91 in 10.0 mi NE 10.4 mph 17.3 mph N/A   Clear
10:35 AM 59.0 °F - 41.0 °F 51% 29.91 in 10.0 mi NE 12.7 mph 17.3 mph N/A   Clear
10:36 AM 60.8 °F - 41.0 °F 48% 29.91 in 10.0 mi NE 11.5 mph 17.3 mph N/A   Clear
10:55 AM 62.6 °F - 41.0 °F 45% 29.94 in 10.0 mi NNE 10.4 mph 17.3 mph N/A   Clear
11:15 AM 62.6 °F - 39.2 °F 42% 29.95 in 10.0 mi NE 8.1 mph 16.1 mph N/A   Clear
11:16 AM 62.6 °F - 39.2 °F 42% 29.95 in 10.0 mi NE 8.1 mph 16.1 mph N/A   Clear
11:35 AM 62.6 °F - 39.2 °F 42% 29.95 in 10.0 mi ENE 6.9 mph - N/A   Clear
11:36 AM 62.6 °F - 39.2 °F 42% 29.95 in 10.0 mi East 6.9 mph - N/A   Clear
11:55 AM 64.4 °F - 39.2 °F 40% 29.95 in 10.0 mi East 11.5 mph - N/A   Clear
12:15 PM 64.4 °F - 37.4 °F 37% 29.95 in 10.0 mi ESE 12.7 mph 18.4 mph N/A   Clear
12:16 PM 64.4 °F - 37.4 °F 37% 29.95 in 10.0 mi East 9.2 mph 18.4 mph N/A   Clear
12:35 PM 64.4 °F - 39.2 °F 40% 29.94 in 10.0 mi East 8.1 mph - N/A   Clear
12:36 PM 64.4 °F - 39.2 °F 40% 29.94 in 10.0 mi East 9.2 mph - N/A   Clear
12:55 PM 64.4 °F - 37.4 °F 37% 29.93 in 10.0 mi ENE 10.4 mph - N/A   Clear
1:15 PM 66.2 °F - 37.4 °F 35% 29.92 in 10.0 mi ENE 6.9 mph 17.3 mph N/A   Clear
1:16 PM 66.2 °F - 37.4 °F 35% 29.92 in 10.0 mi ENE 4.6 mph 17.3 mph N/A   Clear
1:35 PM 66.2 °F - 37.4 °F 35% 29.91 in 10.0 mi ENE 10.4 mph - N/A   Clear
1:55 PM 66.2 °F - 37.4 °F 35% 29.91 in 10.0 mi NE 9.2 mph - N/A   Clear
2:15 PM 66.2 °F - 37.4 °F 35% 29.90 in 10.0 mi NE 9.2 mph - N/A   Clear
2:16 PM 66.2 °F - 37.4 °F 35% 29.90 in 10.0 mi ENE 9.2 mph - N/A   Clear
2:35 PM 68.0 °F - 37.4 °F 33% 29.88 in 10.0 mi NE 11.5 mph - N/A   Clear
2:55 PM 68.0 °F - 37.4 °F 33% 29.88 in 10.0 mi NE 10.4 mph 17.3 mph N/A   Clear
3:15 PM 68.0 °F - 35.6 °F 30% 29.88 in 10.0 mi East 8.1 mph 16.1 mph N/A   Clear
3:16 PM 68.0 °F - 35.6 °F 30% 29.88 in 10.0 mi ENE 9.2 mph 16.1 mph N/A   Clear
3:35 PM 69.8 °F - 37.4 °F 31% 29.87 in 10.0 mi ENE 10.4 mph - N/A   Clear
3:55 PM 69.8 °F - 35.6 °F 28% 29.87 in 10.0 mi ENE 10.4 mph 17.3 mph N/A   Clear
3:56 PM 69.8 °F - 35.6 °F 28% 29.87 in 10.0 mi ENE 9.2 mph 17.3 mph N/A   Clear
4:15 PM 69.8 °F - 37.4 °F 31% 29.87 in 10.0 mi NE 8.1 mph 18.4 mph N/A   Clear
4:35 PM 69.8 °F - 37.4 °F 31% 29.86 in 10.0 mi ENE 8.1 mph 16.1 mph N/A   Clear
4:55 PM 69.8 °F - 35.6 °F 28% 29.86 in 10.0 mi NE 11.5 mph 17.3 mph N/A   Scattered Clouds
4:56 PM 69.8 °F - 35.6 °F 28% 29.86 in 10.0 mi ENE 10.4 mph 17.3 mph N/A   Scattered Clouds
5:15 PM 66.2 °F - 35.6 °F 32% 29.87 in 10.0 mi NE 5.8 mph - N/A   Scattered Clouds
5:35 PM 66.2 °F - 35.6 °F 32% 29.87 in 10.0 mi NE 9.2 mph - N/A   Scattered Clouds
5:55 PM 66.2 °F - 35.6 °F 32% 29.86 in 10.0 mi NE 11.5 mph - N/A   Scattered Clouds
5:56 PM 66.2 °F - 35.6 °F 32% 29.86 in 10.0 mi NE 10.4 mph - N/A   Scattered Clouds
6:15 PM 66.2 °F - 35.6 °F 32% 29.87 in 10.0 mi ENE 9.2 mph - N/A   Scattered Clouds
6:16 PM 66.2 °F - 35.6 °F 32% 29.87 in 10.0 mi ENE 9.2 mph - N/A   Scattered Clouds
6:35 PM 66.2 °F - 35.6 °F 32% 29.86 in 10.0 mi NE 10.4 mph 18.4 mph N/A   Scattered Clouds
6:36 PM 66.2 °F - 35.6 °F 32% 29.86 in 10.0 mi NE 9.2 mph 18.4 mph N/A   Scattered Clouds
6:55 PM 64.4 °F - 35.6 °F 34% 29.86 in 10.0 mi ENE 12.7 mph 19.6 mph N/A   Mostly Cloudy
7:15 PM 64.4 °F - 33.8 °F 32% 29.84 in 10.0 mi NE 13.8 mph 20.7 mph N/A   Scattered Clouds
7:35 PM 64.4 °F - 33.8 °F 32% 29.82 in 10.0 mi NE 13.8 mph 19.6 mph N/A   Clear
7:36 PM 64.4 °F - 33.8 °F 32% 29.82 in 10.0 mi NE 12.7 mph 19.6 mph N/A   Clear
7:55 PM 62.6 °F - 32.0 °F 32% 29.85 in 10.0 mi NE 9.2 mph - N/A   Scattered Clouds
7:56 PM 62.6 °F - 32.0 °F 32% 29.85 in 10.0 mi NE 10.4 mph 16.1 mph N/A   Scattered Clouds
8:15 PM 62.6 °F - 30.2 °F 30% 29.85 in 10.0 mi NE 8.1 mph 16.1 mph N/A   Overcast
8:35 PM 62.6 °F - 32.0 °F 32% 29.83 in 10.0 mi NE 15.0 mph 21.9 mph N/A   Overcast
8:36 PM 62.6 °F - 32.0 °F 32% 29.83 in 10.0 mi NE 18.4 mph 21.9 mph N/A   Overcast
8:55 PM 62.6 °F - 30.2 °F 30% 29.82 in 10.0 mi NE 11.5 mph 21.9 mph N/A   Mostly Cloudy
9:15 PM 60.8 °F - 30.2 °F 31% 29.84 in 10.0 mi NE 8.1 mph - N/A   Scattered Clouds
9:35 PM 60.8 °F - 28.4 °F 29% 29.84 in 10.0 mi NE 10.4 mph 20.7 mph N/A   Mostly Cloudy
9:36 PM 60.8 °F - 30.2 °F 31% 29.84 in 10.0 mi NE 8.1 mph 20.7 mph N/A   Mostly Cloudy
9:55 PM 59.0 °F - 28.4 °F 31% 29.85 in 10.0 mi ENE 10.4 mph 16.1 mph N/A   Overcast
10:15 PM 59.0 °F - 28.4 °F 31% 29.86 in 10.0 mi NE 8.1 mph - N/A   Overcast
10:35 PM 57.2 °F - 26.6 °F 31% 29.87 in 10.0 mi ENE 10.4 mph 18.4 mph N/A   Overcast
10:36 PM 57.2 °F - 26.6 °F 31% 29.87 in 10.0 mi ENE 12.7 mph 18.4 mph N/A   Overcast
10:55 PM 57.2 °F - 26.6 °F 31% 29.86 in 10.0 mi NE 10.4 mph 19.6 mph N/A   Overcast
10:56 PM 57.2 °F - 26.6 °F 31% 29.86 in 10.0 mi ENE 10.4 mph 19.6 mph N/A   Overcast
11:15 PM 57.2 °F - 26.6 °F 31% 29.87 in 10.0 mi ENE 10.4 mph - N/A   Overcast
11:35 PM 57.2 °F - 26.6 °F 31% 29.86 in 10.0 mi NE 10.4 mph - N/A   Overcast
11:36 PM 57.2 °F - 26.6 °F 31% 29.86 in 10.0 mi NE 10.4 mph - N/A Rain Light Rain
11:55 PM 53.6 °F - 33.8 °F 47% 29.84 in 10.0 mi NE 9.2 mph - N/A Rain Rain